• In Österreich
  • Länderverzeichnis
  • Für 7 Tage
  • Wassertemperatur
  • Satellitenkarten
  • Wetterkarte
  • News
  • Widgets
  • user-avatar
    Anmelden

    Stündliche Wetter Daniel

    Heute, 22 Oktober, Montag

    Zeit Temperatur Niederschläge Wind Luftdruck Luftfeuchtigkeit
    00:00 +7°C° 0 mm 1 m/S 759 mmHg 78%
    01:00 +7°C° 0 mm 1 m/S 759 mmHg 79%
    02:00 +6°C° 0 mm 1 m/S 759 mmHg 80%
    03:00 +5°C° 0 mm 2 m/S 759 mmHg 81%
    04:00 +5°C° 0 mm 2 m/S 758 mmHg 83%
    05:00 +5°C° 0 mm 2 m/S 758 mmHg 83%
    06:00 +5°C° 0 mm 2 m/S 758 mmHg 84%
    07:00 +5°C° 0 mm 2 m/S 758 mmHg 84%
    08:00 +6°C° 0 mm 2 m/S 758 mmHg 77%
    09:00 +8°C° 0 mm 3 m/S 758 mmHg 70%
    10:00 +10°C° 0 mm 3 m/S 758 mmHg 63%
    11:00 +11°C° 0 mm 3 m/S 757 mmHg 60%
    12:00 +12°C° 0 mm 3 m/S 757 mmHg 57%
    13:00 +13°C° 0 mm 4 m/S 756 mmHg 53%
    14:00 +13°C° 0 mm 4 m/S 756 mmHg 56%
    15:00 +13°C° 0 mm 3 m/S 756 mmHg 58%
    16:00 +12°C° 0 mm 3 m/S 756 mmHg 61%
    17:00 +12°C° 0.3 mm 4 m/S 756 mmHg 68%
    18:00 +11°C° 0.3 mm 4 m/S 756 mmHg 75%
    19:00 +9°C° 0.3 mm 5 m/S 756 mmHg 82%
    20:00 +9°C° 0.1 mm 5 m/S 757 mmHg 80%
    21:00 +8°C° 0.1 mm 4 m/S 757 mmHg 78%
    22:00 +8°C° 0.1 mm 4 m/S 757 mmHg 77%
    23:00 +7°C° 0 mm 4 m/S 757 mmHg 80%

    Morgen, 23 Oktober, Dienstag

    Zeit Temperatur Niederschläge Wind Luftdruck Luftfeuchtigkeit
    00:00 +6°C° 0 mm 4 m/S 757 mmHg 83%
    01:00 +5°C° 0 mm 3 m/S 757 mmHg 86%
    02:00 +5°C° 0 mm 4 m/S 757 mmHg 85%
    03:00 +5°C° 0 mm 4 m/S 756 mmHg 84%
    04:00 +5°C° 0 mm 4 m/S 756 mmHg 83%
    05:00 +5°C° 0 mm 4 m/S 755 mmHg 82%
    06:00 +5°C° 0 mm 5 m/S 755 mmHg 80%
    07:00 +5°C° 0 mm 5 m/S 754 mmHg 78%
    08:00 +4°C° 0.4 mm 6 m/S 753 mmHg 76%
    09:00 +5°C° 0.4 mm 8 m/S 752 mmHg 74%
    10:00 +5°C° 0.4 mm 9 m/S 751 mmHg 72%
    11:00 +5°C° 0.9 mm 9 m/S 750 mmHg 74%
    12:00 +5°C° 0.9 mm 10 m/S 749 mmHg 75%
    13:00 +6°C° 0.9 mm 10 m/S 747 mmHg 76%
    14:00 +6°C° 0.7 mm 10 m/S 746 mmHg 77%
    15:00 +6°C° 0.7 mm 11 m/S 745 mmHg 78%
    16:00 +7°C° 0.7 mm 11 m/S 744 mmHg 79%
    17:00 +7°C° 0.7 mm 11 m/S 743 mmHg 81%
    18:00 +8°C° 0.7 mm 11 m/S 743 mmHg 82%
    19:00 +8°C° 0.7 mm 11 m/S 742 mmHg 83%
    20:00 +9°C° 1.2 mm 11 m/S 741 mmHg 84%
    21:00 +9°C° 1.2 mm 11 m/S 741 mmHg 84%
    22:00 +9°C° 1.2 mm 11 m/S 740 mmHg 84%
    23:00 +9°C° 1.3 mm 11 m/S 739 mmHg 83%

    übermorgen, 24 Oktober, Mittwoch

    Zeit Temperatur Niederschläge Wind Luftdruck Luftfeuchtigkeit
    00:00 +9°C° 1.3 mm 11 m/S 739 mmHg 83%
    01:00 +9°C° 1.3 mm 11 m/S 738 mmHg 82%
    02:00 +8°C° 1 mm 11 m/S 738 mmHg 78%
    03:00 +7°C° 1 mm 11 m/S 738 mmHg 73%
    04:00 +7°C° 1 mm 12 m/S 738 mmHg 69%
    05:00 +6°C° 0.1 mm 11 m/S 739 mmHg 67%
    06:00 +5°C° 0.1 mm 10 m/S 741 mmHg 64%
    07:00 +3°C° 0.1 mm 9 m/S 742 mmHg 62%
    08:00 +5°C° 0 mm 10 m/S 742 mmHg 57%
    09:00 +4°C° 0 mm 11 m/S 743 mmHg 51%
    10:00 +5°C° 0 mm 12 m/S 744 mmHg 46%
    11:00 +6°C° 0 mm 11 m/S 744 mmHg 45%
    12:00 +7°C° 0 mm 11 m/S 745 mmHg 43%
    13:00 +7°C° 0 mm 11 m/S 745 mmHg 42%
    14:00 +7°C° 0 mm 10 m/S 746 mmHg 43%
    15:00 +6°C° 0 mm 9 m/S 746 mmHg 43%
    16:00 +6°C° 0 mm 7 m/S 747 mmHg 44%
    17:00 +5°C° 0 mm 7 m/S 747 mmHg 47%
    18:00 +5°C° 0 mm 7 m/S 748 mmHg 49%
    19:00 +4°C° 0 mm 6 m/S 748 mmHg 52%
    20:00 +4°C° 0 mm 6 m/S 749 mmHg 56%
    21:00 +3°C° 0 mm 6 m/S 749 mmHg 61%
    22:00 +3°C° 0 mm 5 m/S 749 mmHg 65%
    23:00 +3°C° 0 mm 5 m/S 749 mmHg 67%

    25 Oktober, Donnerstag

    Zeit Temperatur Niederschläge Wind Luftdruck Luftfeuchtigkeit
    00:00 +3°C° 0 mm 5 m/S 749 mmHg 69%
    01:00 +4°C° 0 mm 4 m/S 749 mmHg 72%
    02:00 +4°C° 0 mm 4 m/S 748 mmHg 74%
    03:00 +5°C° 0 mm 4 m/S 747 mmHg 75%
    04:00 +5°C° 0 mm 4 m/S 746 mmHg 77%
    05:00 +6°C° 0.5 mm 5 m/S 746 mmHg 81%
    06:00 +7°C° 0.5 mm 6 m/S 745 mmHg 86%
    07:00 +8°C° 0.5 mm 7 m/S 744 mmHg 90%
    08:00 +9°C° 0.1 mm 8 m/S 744 mmHg 86%
    09:00 +8°C° 0.1 mm 9 m/S 744 mmHg 82%
    10:00 +9°C° 0.1 mm 10 m/S 743 mmHg 79%
    11:00 +9°C° 0.1 mm 10 m/S 743 mmHg 78%
    12:00 +9°C° 0.1 mm 10 m/S 743 mmHg 78%
    13:00 +9°C° 0.1 mm 10 m/S 743 mmHg 78%
    14:00 +10°C° 0.1 mm 9 m/S 744 mmHg 76%
    15:00 +10°C° 0.1 mm 9 m/S 744 mmHg 74%
    16:00 +9°C° 0.1 mm 8 m/S 744 mmHg 72%
    17:00 +9°C° 0 mm 7 m/S 745 mmHg 74%
    18:00 +8°C° 0 mm 7 m/S 745 mmHg 76%
    19:00 +7°C° 0 mm 6 m/S 746 mmHg 78%
    20:00 +7°C° 0 mm 5 m/S 746 mmHg 79%
    21:00 +7°C° 0 mm 5 m/S 746 mmHg 79%
    22:00 +7°C° 0 mm 5 m/S 747 mmHg 80%
    23:00 +6°C° 0 mm 5 m/S 747 mmHg 80%

    26 Oktober, Freitag

    Zeit Temperatur Niederschläge Wind Luftdruck Luftfeuchtigkeit
    00:00 +6°C° 0 mm 5 m/S 747 mmHg 80%
    01:00 +6°C° 0 mm 5 m/S 747 mmHg 80%
    02:00 +6°C° 0 mm 4 m/S 747 mmHg 82%
    03:00 +6°C° 0 mm 4 m/S 747 mmHg 83%
    04:00 +5°C° 0 mm 4 m/S 747 mmHg 84%
    05:00 +5°C° 0 mm 3 m/S 747 mmHg 85%
    06:00 +5°C° 0 mm 3 m/S 747 mmHg 87%
    07:00 +5°C° 0 mm 3 m/S 747 mmHg 88%
    08:00 +7°C° 0 mm 3 m/S 747 mmHg 83%
    09:00 +8°C° 0 mm 3 m/S 747 mmHg 79%
    10:00 +9°C° 0 mm 3 m/S 746 mmHg 74%
    11:00 +10°C° 0 mm 3 m/S 746 mmHg 72%
    12:00 +11°C° 0 mm 3 m/S 746 mmHg 70%
    13:00 +12°C° 0 mm 3 m/S 745 mmHg 68%
    14:00 +11°C° 0 mm 3 m/S 745 mmHg 71%
    15:00 +11°C° 0 mm 3 m/S 744 mmHg 74%
    16:00 +11°C° 0 mm 3 m/S 744 mmHg 76%
    17:00 +11°C° 0 mm 3 m/S 744 mmHg 76%
    18:00 +10°C° 0 mm 4 m/S 743 mmHg 77%
    19:00 +10°C° 0 mm 4 m/S 743 mmHg 77%
    20:00 +10°C° 0 mm 4 m/S 743 mmHg 77%
    21:00 +10°C° 0 mm 4 m/S 742 mmHg 77%
    22:00 +9°C° 0 mm 5 m/S 742 mmHg 77%
    23:00 +10°C° 0 mm 4 m/S 742 mmHg 78%

    27 Oktober, Samstag

    Zeit Temperatur Niederschläge Wind Luftdruck Luftfeuchtigkeit
    00:00 +10°C° 0 mm 4 m/S 742 mmHg 79%
    01:00 +10°C° 0 mm 4 m/S 741 mmHg 79%
    02:00 +9°C° 0 mm 3 m/S 741 mmHg 82%
    03:00 +9°C° 0 mm 3 m/S 741 mmHg 84%
    04:00 +9°C° 0 mm 2 m/S 741 mmHg 86%
    05:00 +8°C° 0 mm 2 m/S 741 mmHg 88%
    06:00 +8°C° 0 mm 2 m/S 740 mmHg 89%
    07:00 +8°C° 0 mm 2 m/S 740 mmHg 91%
    08:00 +9°C° 0 mm 2 m/S 740 mmHg 86%
    09:00 +11°C° 0 mm 1 m/S 740 mmHg 81%
    10:00 +12°C° 0 mm 1 m/S 740 mmHg 76%
    11:00 +12°C° 0.1 mm 1 m/S 739 mmHg 74%
    12:00 +13°C° 0.1 mm 1 m/S 739 mmHg 72%
    13:00 +13°C° 0.1 mm 1 m/S 738 mmHg 70%
    14:00 +13°C° 0.6 mm 2 m/S 738 mmHg 74%
    15:00 +12°C° 0.6 mm 2 m/S 738 mmHg 78%
    16:00 +11°C° 0.6 mm 3 m/S 737 mmHg 82%
    17:00 +10°C° 1 mm 3 m/S 737 mmHg 85%
    18:00 +10°C° 1 mm 4 m/S 737 mmHg 87%
    19:00 +8°C° 1 mm 5 m/S 736 mmHg 90%
    20:00 +8°C° 0.6 mm 5 m/S 736 mmHg 90%
    21:00 +8°C° 0.6 mm 4 m/S 736 mmHg 91%
    22:00 +8°C° 0.6 mm 4 m/S 736 mmHg 92%
    23:00 +7°C° 0.7 mm 5 m/S 736 mmHg 91%

    28 Oktober, Sonntag

    Zeit Temperatur Niederschläge Wind Luftdruck Luftfeuchtigkeit
    00:00 +7°C° 0.7 mm 5 m/S 736 mmHg 91%
    01:00 +7°C° 0.7 mm 5 m/S 735 mmHg 91%
    02:00 +7°C° 0.6 mm 5 m/S 736 mmHg 90%
    03:00 +6°C° 0.6 mm 5 m/S 736 mmHg 90%
    04:00 +6°C° 0.6 mm 5 m/S 736 mmHg 89%
    05:00 +6°C° 0.3 mm 5 m/S 737 mmHg 89%
    06:00 +6°C° 0.3 mm 5 m/S 738 mmHg 88%
    07:00 +5°C° 0.3 mm 5 m/S 739 mmHg 88%
    08:00 +6°C° 0 mm 4 m/S 740 mmHg 85%
    09:00 +6°C° 0 mm 4 m/S 741 mmHg 83%
    10:00 +6°C° 0 mm 4 m/S 742 mmHg 80%
    11:00 +7°C° 0 mm 4 m/S 743 mmHg 76%
    12:00 +8°C° 0 mm 4 m/S 743 mmHg 71%
    13:00 +9°C° 0 mm 3 m/S 744 mmHg 67%
    14:00 +9°C° 0 mm 3 m/S 745 mmHg 68%
    15:00 +9°C° 0 mm 2 m/S 745 mmHg 69%
    16:00 +10°C° 0 mm 1 m/S 746 mmHg 70%
    17:00 +9°C° 0 mm 1 m/S 746 mmHg 72%
    18:00 +9°C° 0 mm 1 m/S 747 mmHg 75%
    19:00 +8°C° 0 mm 1 m/S 747 mmHg 77%
    20:00 +8°C° 0 mm 1 m/S 748 mmHg 79%
    21:00 +7°C° 0 mm 1 m/S 748 mmHg 81%
    22:00 +7°C° 0 mm 1 m/S 748 mmHg 82%
    23:00 +7°C° 0 mm 1 m/S 748 mmHg 83%
    Mehr zeigen